Weather reports worldwide

Advertisment
Llanes, Spain (8016): temperature & dewpoint: 17.05.2019 14:00:00 - 23.05.2019 14:00:00 (CEST)Llanes, Spain (8016): wind speed & gusts: 17.05.2019 14:00:00 - 23.05.2019 14:00:00 (CEST)Llanes, Spain (8016): wind direction: 17.05.2019 14:00:00 - 23.05.2019 14:00:00 (CEST)Llanes, Spain (8016): reduced air pressure: 17.05.2019 14:00:00 - 23.05.2019 14:00:00 (CEST)Llanes, Spain (8016): visibility: 17.05.2019 14:00:00 - 23.05.2019 14:00:00 (CEST)Llanes, Spain (8016): sunshine duration: 17.05.2019 14:00:00 - 23.05.2019 14:00:00 (CEST)Llanes, Spain (8016): precipitation: 17.05.2019 14:00:00 - 23.05.2019 14:00:00 (CEST)
Date & Time tt [°C] td [°C] ff [km/h] ff [kn] fx [km/h] fx [kn] dd ppp [hPa] vv [km] sd [min] rr [mm]
23.05.2019 14:00:00 - - - - - - - - - - -
23.05.2019 13:00:00 17,5 11,6 18 10 29 16 NW 1019,4 19 50 0,0
23.05.2019 12:00:00 17,6 11,4 18 10 35 19 NW 1019,3 20 31 0,0
23.05.2019 11:00:00 17,5 9,9 16 8 35 19 WNW 1019,2 1,4 25 0,0
23.05.2019 10:00:00 18,0 9,6 17 9 33 18 WNW 1018,9 20 45 0,0
23.05.2019 09:00:00 15,6 8,8 10 5 29 15 W 1018,4 20 33 0,0
23.05.2019 08:00:00 14,1 11,2 6 3 19 11 W 1017,9 20 0 -
23.05.2019 07:00:00 14,1 11,6 6 4 18 10 W 1017,6 13 0 0,0
23.05.2019 06:00:00 13,9 11,6 5 3 17 9 WSW 1017,2 18 0 0,0
23.05.2019 05:00:00 13,7 11,4 6 3 18 10 WSW 1016,8 20 0 0,0
23.05.2019 04:00:00 14,1 11,8 3 2 19 10 WSW 1016,6 14 0 0,0
23.05.2019 03:00:00 14,1 11,6 8 4 18 10 WSW 1017,3 13 0 0,0
23.05.2019 02:00:00 14,6 12,1 5 3 16 9 WSW 1017,4 13 0 -
23.05.2019 01:00:00 14,6 11,9 0 0 17 9 N 1017,7 9 0 0,0
23.05.2019 00:00:00 14,8 12,1 1 1 18 10 W 1018,0 15 0 0,0
22.05.2019 23:00:00 15,0 12,1 1 1 13 7 ESE 1017,9 14 0 0,0
22.05.2019 22:00:00 15,4 12,3 4 2 11 6 E 1017,7 13 11 0,0
22.05.2019 21:00:00 16,4 12,7 5 3 13 7 E 1017,5 15 60 0,0
22.05.2019 20:00:00 17,6 13,2 10 5 14 8 E 1017,5 14 58 -
22.05.2019 19:00:00 18,2 13,5 8 4 11 6 E 1017,4 20 50 0,0
22.05.2019 18:00:00 18,7 13,8 5 3 9 5 E 1017,4 20 60 0,0
22.05.2019 17:00:00 18,8 13,9 6 4 19 10 E 1017,6 17 60 0,0
22.05.2019 16:00:00 18,3 13,2 13 7 19 10 E 1017,6 20 60 0,0
22.05.2019 15:00:00 18,6 13,3 11 6 14 8 E 1017,8 20 60 0,0
22.05.2019 14:00:00 17,5 11,8 5 3 9 5 ENE 1018,2 20 60 -
22.05.2019 13:00:00 17,6 11,9 5 3 13 7 E 1018,4 20 60 0,0
22.05.2019 12:00:00 16,7 11,8 6 3 14 8 E 1018,4 19 60 0,0
22.05.2019 11:00:00 15,7 11,2 8 4 12 7 E 1018,4 20 60 0,0
22.05.2019 10:00:00 14,4 10,6 5 3 11 6 ENE 1018,5 20 60 0,0
22.05.2019 09:00:00 13,3 10,9 4 2 14 8 E 1018,6 20 60 0,0
22.05.2019 08:00:00 10,8 8,5 3 2 16 9 W 1018,6 15 37 -
22.05.2019 07:00:00 10,2 8,1 4 2 21 12 WSW 1018,8 11 0 0,0
22.05.2019 06:00:00 10,5 8,3 6 3 12 6 WSW 1018,9 11 0 0,0
22.05.2019 05:00:00 10,8 8,5 9 5 23 12 WSW 1019,2 14 0 0,0
22.05.2019 04:00:00 11,0 8,4 7 4 14 7 WSW 1019,4 19 0 0,0
22.05.2019 03:00:00 11,6 8,8 4 2 12 7 SW 1019,5 20 0 0,0
22.05.2019 02:00:00 12,3 9,3 3 2 16 9 SSE 1019,8 20 0 -
22.05.2019 01:00:00 12,8 9,7 3 2 13 7 S 1020,0 20 0 0,0
22.05.2019 00:00:00 13,3 10,0 6 4 15 8 SSE 1020,2 20 0 0,0
21.05.2019 23:00:00 13,6 10,2 6 3 22 12 SE 1020,2 20 0 0,0
21.05.2019 22:00:00 14,3 10,9 13 7 25 14 ESE 1019,7 20 19 0,0
21.05.2019 21:00:00 14,7 10,9 17 9 29 16 ESE 1019,4 20 56 0,0
21.05.2019 20:00:00 15,2 11,0 21 11 32 17 E 1019,1 20 59 -
21.05.2019 19:00:00 15,6 11,0 22 12 30 16 E 1019,2 20 60 0,0
21.05.2019 18:00:00 16,2 11,3 22 12 29 16 E 1019,2 20 60 0,0
21.05.2019 17:00:00 16,4 11,3 17 9 29 16 E 1019,4 20 60 0,0
21.05.2019 16:00:00 16,6 11,6 23 12 29 16 E 1019,2 20 60 0,0
21.05.2019 15:00:00 16,7 11,7 19 11 35 19 E 1019,1 20 60 0,0
21.05.2019 14:00:00 16,8 11,7 18 10 28 15 E 1019,0 20 60 -
21.05.2019 13:00:00 16,5 11,2 15 8 21 11 E 1019,2 17 60 0,0
21.05.2019 12:00:00 16,4 11,6 11 6 22 12 E 1019,1 20 60 0,0
21.05.2019 11:00:00 15,3 10,9 15 8 24 13 E 1018,8 20 60 0,0
21.05.2019 10:00:00 14,4 10,6 16 9 22 12 E 1018,3 20 60 0,0
21.05.2019 09:00:00 13,1 10,3 3 1 19 10 NNE 1018,1 20 57 0,0
21.05.2019 08:00:00 9,4 7,1 8 4 21 11 WSW 1017,9 20 10 -
21.05.2019 07:00:00 9,4 7,0 5 3 23 13 WSW 1017,7 20 0 0,0
21.05.2019 06:00:00 9,7 7,3 9 5 21 11 WSW 1017,0 20 0 0,0
21.05.2019 05:00:00 10,4 7,8 3 2 24 13 SW 1016,7 20 0 0,0
21.05.2019 04:00:00 10,1 7,3 8 4 21 12 WSW 1016,7 20 0 0,0
21.05.2019 03:00:00 10,6 7,7 8 5 12 6 SW 1016,8 20 0 0,0
21.05.2019 02:00:00 11,5 8,0 4 2 13 7 WSW 1017,1 20 0 -
21.05.2019 01:00:00 12,4 8,7 6 3 13 7 SW 1017,4 20 0 0,0
21.05.2019 00:00:00 12,8 8,7 4 2 13 7 WSW 1017,3 20 0 0,0
20.05.2019 23:00:00 13,6 9,0 4 2 21 11 S 1017,3 20 0 0,0
20.05.2019 22:00:00 14,2 9,2 13 7 21 12 ESE 1016,3 20 0 0,0
20.05.2019 21:00:00 14,4 9,2 12 7 19 11 ESE 1016,1 20 0 0,0
20.05.2019 20:00:00 14,9 9,3 7 4 13 7 E 1016,2 20 0 -
20.05.2019 19:00:00 15,4 9,7 6 3 13 7 E 1016,2 20 0 0,0
20.05.2019 18:00:00 15,5 9,6 6 3 11 6 E 1016,1 20 0 0,0
20.05.2019 17:00:00 15,8 9,7 6 3 13 7 ENE 1016,0 20 34 0,0
20.05.2019 16:00:00 16,4 10,0 8 4 14 8 NE 1016,2 20 60 0,0
20.05.2019 15:00:00 16,7 10,8 9 5 14 7 ENE 1016,2 20 60 0,0
20.05.2019 14:00:00 16,1 9,8 8 5 14 8 NE 1016,4 20 60 -
20.05.2019 13:00:00 15,7 9,8 9 5 15 8 NNE 1016,4 20 60 0,0
20.05.2019 12:00:00 15,5 9,6 6 4 11 6 NNE 1016,4 20 60 0,0
20.05.2019 11:00:00 15,5 9,8 4 2 14 7 N 1016,4 20 60 0,0
20.05.2019 10:00:00 14,7 9,6 7 4 12 7 NNW 1016,3 20 60 0,0
20.05.2019 09:00:00 13,1 9,6 3 1 16 9 NNW 1015,9 20 60 0,0
20.05.2019 08:00:00 9,8 6,8 4 2 22 12 SW 1015,6 20 35 -
20.05.2019 07:00:00 8,5 5,6 14 8 22 12 WSW 1015,1 20 0 0,0
20.05.2019 06:00:00 9,3 6,1 8 5 23 13 WSW 1015,0 20 0 0,0
20.05.2019 05:00:00 9,5 6,2 11 6 26 14 WSW 1015,4 20 0 0,0
20.05.2019 04:00:00 9,7 6,2 7 4 22 12 SW 1015,6 20 0 0,0
20.05.2019 03:00:00 10,1 6,4 10 5 23 13 SW 1016,0 20 0 0,0
20.05.2019 02:00:00 10,2 6,5 9 5 24 13 SW 1016,4 20 0 -
20.05.2019 01:00:00 10,6 7,0 8 5 15 8 SW 1016,7 20 0 0,0
20.05.2019 00:00:00 11,0 7,3 7 4 16 9 WSW 1017,0 20 0 0,0
19.05.2019 23:00:00 12,0 7,7 6 3 18 10 WSW 1016,9 20 0 0,0
19.05.2019 22:00:00 13,1 8,0 5 3 20 11 W 1016,2 20 7 0,0
19.05.2019 21:00:00 13,9 8,5 8 5 25 13 WNW 1016,0 20 5 0,0
19.05.2019 20:00:00 14,5 9,3 15 8 33 18 WNW 1015,9 20 41 -
19.05.2019 19:00:00 15,4 9,3 19 10 34 18 NW 1015,5 20 56 0,0
19.05.2019 18:00:00 15,0 9,2 13 7 34 18 NW 1015,8 20 14 0,0
19.05.2019 17:00:00 14,9 8,7 21 11 39 21 WNW 1016,1 20 53 0,0
19.05.2019 16:00:00 15,0 8,9 19 11 43 23 WNW 1016,3 20 15 0,0
19.05.2019 15:00:00 15,7 8,7 24 13 42 23 NW 1015,9 20 60 0,0
19.05.2019 14:00:00 15,5 8,5 23 12 43 23 NW 1015,7 20 32 -
19.05.2019 13:00:00 14,6 6,2 16 8 32 18 WNW 1015,5 20 9 0,0
19.05.2019 12:00:00 14,1 6,2 16 9 30 16 WNW 1015,4 20 0 0,0
19.05.2019 11:00:00 13,2 5,8 17 9 32 18 WNW 1015,3 20 0 0,0
19.05.2019 10:00:00 13,1 5,8 16 9 36 19 WNW 1014,7 20 0 0,0
19.05.2019 09:00:00 12,5 5,9 13 7 49 27 W 1014,3 20 0 0,0
19.05.2019 08:00:00 12,0 5,8 15 8 40 21 WNW 1014,1 20 0 -
19.05.2019 07:00:00 11,5 6,2 10 5 49 26 W 1013,6 20 0 0,2
19.05.2019 06:00:00 12,0 6,1 13 7 37 20 W 1013,9 20 0 0,0
19.05.2019 05:00:00 11,9 6,2 15 8 44 24 W 1013,8 20 0 0,0
19.05.2019 04:00:00 11,8 6,5 14 8 39 21 W 1013,8 20 0 0,0
19.05.2019 03:00:00 12,2 7,1 15 8 38 20 W 1013,9 20 0 0,0
19.05.2019 02:00:00 12,1 7,0 13 7 39 21 W 1014,2 20 0 -
19.05.2019 01:00:00 12,4 7,3 15 8 42 23 W 1014,4 20 0 0,0
19.05.2019 00:00:00 12,3 7,4 11 6 40 21 W 1014,3 20 0 0,0
18.05.2019 23:00:00 12,4 7,4 15 8 34 19 WNW 1014,2 20 0 0,0
18.05.2019 22:00:00 12,4 7,4 16 8 27 14 WNW 1013,9 20 0 0,0
18.05.2019 21:00:00 12,9 7,6 14 7 31 17 W 1013,9 20 9 0,0
18.05.2019 20:00:00 13,5 7,7 16 9 53 29 WNW 1013,6 20 11 -
18.05.2019 19:00:00 13,2 7,8 16 9 34 18 W 1013,2 20 0 0,0
18.05.2019 18:00:00 13,0 8,5 16 9 34 19 WNW 1013,0 20 0 0,2
18.05.2019 17:00:00 12,8 8,3 13 7 42 23 W 1012,8 17 0 0,2
18.05.2019 16:00:00 14,2 7,7 19 11 46 25 W 1012,7 20 37 0,2
18.05.2019 15:00:00 12,0 7,6 19 11 43 23 W 1012,5 20 0 0,4
18.05.2019 14:00:00 12,4 8,1 19 10 46 25 W 1012,4 20 0 -
18.05.2019 13:00:00 11,6 8,8 14 7 37 20 W 1012,6 20 0 1,2
18.05.2019 12:00:00 11,1 7,6 19 11 49 27 WNW 1012,5 14 0 1,2
18.05.2019 11:00:00 11,0 7,3 21 12 53 29 W 1012,0 19 0 2,2
18.05.2019 10:00:00 10,4 6,7 19 11 51 28 W 1011,7 20 0 1,6
18.05.2019 09:00:00 10,7 6,1 20 11 50 27 W 1011,2 14 0 0,2
18.05.2019 08:00:00 10,3 6,1 18 10 42 23 W 1010,8 20 0 -
18.05.2019 07:00:00 10,3 5,6 19 10 46 25 W 1011,3 10 0 0,6
18.05.2019 06:00:00 10,4 5,1 15 8 50 27 W 1010,8 20 0 0,0
18.05.2019 05:00:00 10,9 4,6 16 9 48 26 W 1011,1 20 0 0,0
18.05.2019 04:00:00 10,5 4,5 18 10 52 28 W 1011,3 20 0 0,0
18.05.2019 03:00:00 10,4 5,0 19 11 53 29 W 1012,4 20 0 0,2
18.05.2019 02:00:00 10,7 5,0 13 7 41 22 W 1012,9 20 0 -
18.05.2019 01:00:00 10,5 5,6 11 6 34 18 W 1013,0 20 0 0,4
18.05.2019 00:00:00 11,0 5,8 14 7 40 22 W 1013,5 20 0 0,0
17.05.2019 23:00:00 11,0 6,4 13 7 37 20 W 1013,6 20 0 0,0
17.05.2019 22:00:00 10,9 7,3 10 5 36 19 W 1013,4 20 0 0,6
17.05.2019 21:00:00 11,3 7,8 7 4 39 21 W 1013,1 20 0 3,0
17.05.2019 20:00:00 13,1 8,1 16 9 39 21 WNW 1012,8 20 0 -
17.05.2019 19:00:00 14,0 7,7 17 9 50 27 W 1012,7 20 15 0,2
17.05.2019 18:00:00 13,5 8,1 22 12 44 24 WNW 1013,2 20 30 0,0
17.05.2019 17:00:00 12,9 9,2 15 8 40 21 W 1012,8 20 7 5,4
17.05.2019 16:00:00 15,2 8,4 17 9 41 22 W 1012,7 20 22 0,0
17.05.2019 15:00:00 14,1 8,1 23 13 44 24 WNW 1012,5 20 0 0,0
17.05.2019 14:00:00 13,2 8,1 18 10 51 28 W 1012,9 20 2 -

tt = temperature
td = dewpoint
ff = wind speed
fx = gusts
dd = wind direction
ppp = reduced air pressure
vv = visibility
sd = sunshine duration
rr = precipitation

Next stations